Retour au catalogue

LATINSAT A

ActifCommunicationsLEO
NORAD 27612·PAYLOAD·🇦🇷 Argentina

Lancé Dec 20, 2002 depuis Baikonur Cosmodrome

Loading…

Prochains Passages (prochaines 24 heures)

TLE

FraisSource: Space-Track

Époque: Sep 14, 2026, 21:25 UTC

1 27612U 02058H   26257.89248698  .00000782  00000-0  10593-3 0  9997
2 27612  64.5547  43.0277 0047557 234.3362 125.3314 14.85602708280959

Suivez LATINSAT A en temps réel avec AllMySat

Download on the App Store